Regional Weather Roundup
Issued by NWS

Home | Current Version | Previous Version | Text Only | Print | Product List | Glossary Off
Versions: 1 2 3 4 5 6 7 8 9 10 11 12 13 14 15 16 17 18 19 20 21 22 23 24 25 26 27 28 29 30 31 32 33 34 35 36 37 38 39 40 41 42 43 44 45 46 47 48 49 50

000
ASUS45 KCYS 300810
RWRWY

WYOMING REGIONAL WEATHER ROUNDUP
NATIONAL WEATHER SERVICE CHEYENNE WY
200 AM MDT THU JUL 30 2015

NOTE:  "FAIR" INDICATES FEW OR NO CLOUDS BELOW 12,000 FEET
WITH NO SIGNIFICANT WEATHER AND/OR OBSTRUCTIONS TO VISIBILITY.

WYZ001-300900-
YELLOWSTONE NATIONAL PARK

CITY           SKY/WX    TMP DP  RH WIND       PRES   REMARKS
LK YELLOWSTONE   N/A     39  33  79 NW3       30.53S
W YELLOWSTONE  NOT AVBL

$$
WYZ002>013-054>058-071-098>099-300900-
NORTHERN WYOMING

CITY           SKY/WX    TMP DP  RH WIND       PRES   REMARKS
JACKSON        FAIR      43  37  81 N8        30.45R
CODY           FAIR      61  34  36 SW5       30.34S
GREYBULL       FAIR      57  36  45 NW3       30.25R
WORLAND        FAIR      56  30  37 S6        30.26R
SHERIDAN       FAIR      53  42  66 CALM      30.27S
BUFFALO        FAIR      60  36  40 W9        30.34R
GILLETTE       FAIR      49  39  68 S7        30.29R
HULETT         FAIR      54  37  54 S10       30.28F
NEWCASTLE      FAIR      55  37  50 N9        30.28S

$$
WYZ014>020-022>026-101>103-300900-
CENTRAL WYOMING

CITY           SKY/WX    TMP DP  RH WIND       PRES   REMARKS
BIG PINEY      FAIR      45  31  58 N5        30.46S
PINEDALE       FAIR      43  32  65 W8        30.46S
DUBOIS         FAIR      46  30  53 NW13      30.46S
LANDER         FAIR      61  28  28 W13       30.33R
RIVERTON       FAIR      58  30  34 NW12      30.34R
CASPER         FAIR      51  29  42 NW12      30.32S
DOUGLAS        FAIR      55  44  66 CALM      30.30S

$$
WYZ021-027>030-104>119-300900-
SOUTHERN WYOMING

CITY           SKY/WX    TMP DP  RH WIND       PRES   REMARKS
EVANSTON       FAIR      54  25  32 SE8       30.46R
KEMMERER       FAIR      50  32  50 NW9       30.46S
FORT BRIDGER   SUNNY     59  23  25 MISG      30.47S
ROCK SPRINGS   FAIR      58  19  22 SW3       30.41S
DIXON          FAIR      48  23  37 E3        30.43S
RAWLINS        FAIR      50  14  23 NE5       30.41R
SARATOGA       FAIR      45  19  36 S6        30.44R
LARAMIE        FAIR      47  37  68 S3        30.43S
CHEYENNE       FAIR      60  47  61 SW5       30.36S
TORRINGTON     FAIR      62  49  62 E7        30.24F
PINE BLUFFS    FAIR      57  46  67 S7        30.31S

$$



USA.gov is the U.S. government's official web portal to all federal, state and local government web resources and services.